﻿測定場所 (Monitoring sites),日付 (Measurement date),時間 (Measurement time),線量率 最大値 (max) μGy/h,線量率 最小値 (min) μGy/h,線量率 平均値 (average) μGy/h,
新宿 (Shinjuku),2011-03-06,23:00～23:59,0.0363,0.0318,0.0343,
新宿 (Shinjuku),2011-03-06,22:00～22:59,0.0355,0.0318,0.0340,
新宿 (Shinjuku),2011-03-06,21:00～21:59,0.0360,0.0319,0.0340,
新宿 (Shinjuku),2011-03-06,20:00～20:59,0.0363,0.0317,0.0337,
新宿 (Shinjuku),2011-03-06,19:00～19:59,0.0355,0.0322,0.0340,
新宿 (Shinjuku),2011-03-06,18:00～18:59,0.0356,0.0313,0.0339,
新宿 (Shinjuku),2011-03-06,17:00～17:59,0.0363,0.0318,0.0338,
新宿 (Shinjuku),2011-03-06,16:00～16:59,0.0376,0.0308,0.0339,
新宿 (Shinjuku),2011-03-06,15:00～15:59,0.0361,0.0322,0.0342,
新宿 (Shinjuku),2011-03-06,14:00～14:59,0.0367,0.0323,0.0345,
新宿 (Shinjuku),2011-03-06,13:00～13:59,0.0369,0.0330,0.0347,
新宿 (Shinjuku),2011-03-06,12:00～12:59,0.0370,0.0321,0.0343,
新宿 (Shinjuku),2011-03-06,11:00～11:59,0.0367,0.0318,0.0345,
新宿 (Shinjuku),2011-03-06,10:00～10:59,0.0362,0.0329,0.0347,
新宿 (Shinjuku),2011-03-06,09:00～09:59,0.0369,0.0323,0.0346,
新宿 (Shinjuku),2011-03-06,08:00～08:59,0.0363,0.0327,0.0347,
新宿 (Shinjuku),2011-03-06,07:00～07:59,0.0366,0.0321,0.0346,
新宿 (Shinjuku),2011-03-06,06:00～06:59,0.0369,0.0325,0.0346,
新宿 (Shinjuku),2011-03-06,05:00～05:59,0.0368,0.0327,0.0346,
新宿 (Shinjuku),2011-03-06,04:00～04:59,0.0358,0.0311,0.0341,
新宿 (Shinjuku),2011-03-06,03:00～03:59,0.0362,0.0322,0.0342,
新宿 (Shinjuku),2011-03-06,02:00～02:59,0.0377,0.0317,0.0346,
新宿 (Shinjuku),2011-03-06,01:00～01:59,0.0366,0.0316,0.0340,
新宿 (Shinjuku),2011-03-06,00:00～00:59,0.0354,0.0311,0.0337,
新宿 (Shinjuku),2011-03-05,23:00～23:59,0.0355,0.0318,0.0338,
新宿 (Shinjuku),2011-03-05,22:00～22:59,0.0364,0.0315,0.0335,
新宿 (Shinjuku),2011-03-05,21:00～21:59,0.0353,0.0308,0.0337,
新宿 (Shinjuku),2011-03-05,20:00～20:59,0.0356,0.0316,0.0336,
新宿 (Shinjuku),2011-03-05,19:00～19:59,0.0359,0.0313,0.0336,
新宿 (Shinjuku),2011-03-05,18:00～18:59,0.0363,0.0316,0.0337,
新宿 (Shinjuku),2011-03-05,17:00～17:59,0.0367,0.0304,0.0336,
新宿 (Shinjuku),2011-03-05,16:00～16:59,0.0360,0.0313,0.0336,
新宿 (Shinjuku),2011-03-05,15:00～15:59,0.0363,0.0319,0.0339,
新宿 (Shinjuku),2011-03-05,14:00～14:59,0.0356,0.0322,0.0339,
新宿 (Shinjuku),2011-03-05,13:00～13:59,0.0374,0.0314,0.0340,
新宿 (Shinjuku),2011-03-05,12:00～12:59,0.0360,0.0322,0.0340,
新宿 (Shinjuku),2011-03-05,11:00～11:59,0.0358,0.0318,0.0340,
新宿 (Shinjuku),2011-03-05,10:00～10:59,0.0368,0.0325,0.0341,
新宿 (Shinjuku),2011-03-05,09:00～09:59,0.0358,0.0320,0.0336,
新宿 (Shinjuku),2011-03-05,08:00～08:59,0.0367,0.0321,0.0339,
新宿 (Shinjuku),2011-03-05,07:00～07:59,0.0360,0.0316,0.0340,
新宿 (Shinjuku),2011-03-05,06:00～06:59,0.0359,0.0318,0.0339,
新宿 (Shinjuku),2011-03-05,05:00～05:59,0.0367,0.0322,0.0343,
新宿 (Shinjuku),2011-03-05,04:00～04:59,0.0367,0.0322,0.0345,
新宿 (Shinjuku),2011-03-05,03:00～03:59,0.0361,0.0322,0.0342,
新宿 (Shinjuku),2011-03-05,02:00～02:59,0.0366,0.0318,0.0341,
新宿 (Shinjuku),2011-03-05,01:00～01:59,0.0361,0.0321,0.0339,
新宿 (Shinjuku),2011-03-05,00:00～00:59,0.0361,0.0322,0.0341,
新宿 (Shinjuku),2011-03-04,23:00～23:59,0.0365,0.0325,0.0342,
新宿 (Shinjuku),2011-03-04,22:00～22:59,0.0359,0.0316,0.0340,
新宿 (Shinjuku),2011-03-04,21:00～21:59,0.0365,0.0310,0.0340,
新宿 (Shinjuku),2011-03-04,20:00～20:59,0.0358,0.0319,0.0339,
新宿 (Shinjuku),2011-03-04,19:00～19:59,0.0367,0.0318,0.0340,
新宿 (Shinjuku),2011-03-04,18:00～18:59,0.0363,0.0319,0.0340,
新宿 (Shinjuku),2011-03-04,17:00～17:59,0.0356,0.0312,0.0336,
新宿 (Shinjuku),2011-03-04,16:00～16:59,0.0365,0.0314,0.0338,
新宿 (Shinjuku),2011-03-04,15:00～15:59,0.0363,0.0315,0.0338,
新宿 (Shinjuku),2011-03-04,14:00～14:59,0.0361,0.0322,0.0341,
新宿 (Shinjuku),2011-03-04,13:00～13:59,0.0358,0.0318,0.0339,
新宿 (Shinjuku),2011-03-04,12:00～12:59,0.0360,0.0317,0.0337,
新宿 (Shinjuku),2011-03-04,11:00～11:59,0.0357,0.0316,0.0339,
新宿 (Shinjuku),2011-03-04,10:00～10:59,0.0366,0.0313,0.0337,
新宿 (Shinjuku),2011-03-04,09:00～09:59,0.0365,0.0312,0.0337,
新宿 (Shinjuku),2011-03-04,08:00～08:59,0.0358,0.0315,0.0340,
新宿 (Shinjuku),2011-03-04,07:00～07:59,0.0368,0.0311,0.0338,
新宿 (Shinjuku),2011-03-04,06:00～06:59,0.0363,0.0318,0.0341,
新宿 (Shinjuku),2011-03-04,05:00～05:59,0.0375,0.0322,0.0340,
新宿 (Shinjuku),2011-03-04,04:00～04:59,0.0370,0.0322,0.0343,
新宿 (Shinjuku),2011-03-04,03:00～03:59,0.0367,0.0311,0.0339,
新宿 (Shinjuku),2011-03-04,02:00～02:59,0.0363,0.0315,0.0339,
新宿 (Shinjuku),2011-03-04,01:00～01:59,0.0360,0.0326,0.0342,
新宿 (Shinjuku),2011-03-04,00:00～00:59,0.0356,0.0311,0.0339,
新宿 (Shinjuku),2011-03-03,23:00～23:59,0.0360,0.0313,0.0338,
新宿 (Shinjuku),2011-03-03,22:00～22:59,0.0365,0.0315,0.0340,
新宿 (Shinjuku),2011-03-03,21:00～21:59,0.0366,0.0309,0.0338,
新宿 (Shinjuku),2011-03-03,20:00～20:59,0.0357,0.0316,0.0339,
新宿 (Shinjuku),2011-03-03,19:00～19:59,0.0363,0.0321,0.0341,
新宿 (Shinjuku),2011-03-03,18:00～18:59,0.0374,0.0310,0.0338,
新宿 (Shinjuku),2011-03-03,17:00～17:59,0.0355,0.0319,0.0335,
新宿 (Shinjuku),2011-03-03,16:00～16:59,0.0363,0.0304,0.0338,
新宿 (Shinjuku),2011-03-03,15:00～15:59,0.0360,0.0316,0.0339,
新宿 (Shinjuku),2011-03-03,14:00～14:59,0.0366,0.0315,0.0338,
新宿 (Shinjuku),2011-03-03,13:00～13:59,0.0356,0.0314,0.0339,
新宿 (Shinjuku),2011-03-03,12:00～12:59,0.0359,0.0312,0.0340,
新宿 (Shinjuku),2011-03-03,11:00～11:59,0.0375,0.0322,0.0341,
新宿 (Shinjuku),2011-03-03,10:00～10:59,0.0358,0.0318,0.0338,
新宿 (Shinjuku),2011-03-03,09:00～09:59,0.0377,0.0311,0.0339,
新宿 (Shinjuku),2011-03-03,08:00～08:59,0.0367,0.0323,0.0340,
新宿 (Shinjuku),2011-03-03,07:00～07:59,0.0362,0.0321,0.0342,
新宿 (Shinjuku),2011-03-03,06:00～06:59,0.0362,0.0318,0.0339,
新宿 (Shinjuku),2011-03-03,05:00～05:59,0.0371,0.0322,0.0344,
新宿 (Shinjuku),2011-03-03,04:00～04:59,0.0363,0.0316,0.0344,
新宿 (Shinjuku),2011-03-03,03:00～03:59,0.0363,0.0325,0.0343,
新宿 (Shinjuku),2011-03-03,02:00～02:59,0.0368,0.0322,0.0342,
新宿 (Shinjuku),2011-03-03,01:00～01:59,0.0375,0.0327,0.0344,
新宿 (Shinjuku),2011-03-03,00:00～00:59,0.0371,0.0315,0.0343,
新宿 (Shinjuku),2011-03-02,23:00～23:59,0.0367,0.0318,0.0342,
新宿 (Shinjuku),2011-03-02,22:00～22:59,0.0371,0.0325,0.0344,
新宿 (Shinjuku),2011-03-02,21:00～21:59,0.0367,0.0318,0.0342,
新宿 (Shinjuku),2011-03-02,20:00～20:59,0.0374,0.0311,0.0341,
新宿 (Shinjuku),2011-03-02,19:00～19:59,0.0360,0.0325,0.0341,
新宿 (Shinjuku),2011-03-02,18:00～18:59,0.0360,0.0316,0.0344,
新宿 (Shinjuku),2011-03-02,17:00～17:59,0.0361,0.0323,0.0342,
新宿 (Shinjuku),2011-03-02,16:00～16:59,0.0374,0.0320,0.0344,
新宿 (Shinjuku),2011-03-02,15:00～15:59,0.0359,0.0316,0.0338,
新宿 (Shinjuku),2011-03-02,14:00～14:59,0.0370,0.0321,0.0342,
新宿 (Shinjuku),2011-03-02,13:00～13:59,0.0366,0.0311,0.0338,
新宿 (Shinjuku),2011-03-02,12:00～12:59,0.0367,0.0318,0.0340,
新宿 (Shinjuku),2011-03-02,11:00～11:59,0.0353,0.0315,0.0339,
新宿 (Shinjuku),2011-03-02,10:00～10:59,0.0362,0.0323,0.0341,
新宿 (Shinjuku),2011-03-02,09:00～09:59,0.0364,0.0314,0.0342,
新宿 (Shinjuku),2011-03-02,08:00～08:59,0.0363,0.0318,0.0343,
新宿 (Shinjuku),2011-03-02,07:00～07:59,0.0365,0.0319,0.0338,
新宿 (Shinjuku),2011-03-02,06:00～06:59,0.0368,0.0325,0.0342,
新宿 (Shinjuku),2011-03-02,05:00～05:59,0.0372,0.0315,0.0344,
新宿 (Shinjuku),2011-03-02,04:00～04:59,0.0366,0.0316,0.0344,
新宿 (Shinjuku),2011-03-02,03:00～03:59,0.0367,0.0320,0.0345,
新宿 (Shinjuku),2011-03-02,02:00～02:59,0.0370,0.0332,0.0350,
新宿 (Shinjuku),2011-03-02,01:00～01:59,0.0384,0.0333,0.0359,
新宿 (Shinjuku),2011-03-02,00:00～00:59,0.0419,0.0350,0.0383,
新宿 (Shinjuku),2011-03-01,23:00～23:59,0.0456,0.0389,0.0428,
新宿 (Shinjuku),2011-03-01,22:00～22:59,0.0450,0.0382,0.0420,
新宿 (Shinjuku),2011-03-01,21:00～21:59,0.0461,0.0410,0.0434,
新宿 (Shinjuku),2011-03-01,20:00～20:59,0.0434,0.0375,0.0409,
新宿 (Shinjuku),2011-03-01,19:00～19:59,0.0429,0.0388,0.0410,
新宿 (Shinjuku),2011-03-01,18:00～18:59,0.0439,0.0397,0.0422,
新宿 (Shinjuku),2011-03-01,17:00～17:59,0.0438,0.0395,0.0417,
新宿 (Shinjuku),2011-03-01,16:00～16:59,0.0439,0.0353,0.0403,
新宿 (Shinjuku),2011-03-01,15:00～15:59,0.0371,0.0318,0.0342,
新宿 (Shinjuku),2011-03-01,14:00～14:59,0.0363,0.0313,0.0336,
新宿 (Shinjuku),2011-03-01,13:00～13:59,0.0358,0.0315,0.0337,
新宿 (Shinjuku),2011-03-01,12:00～12:59,0.0367,0.0321,0.0338,
新宿 (Shinjuku),2011-03-01,11:00～11:59,0.0363,0.0320,0.0338,
新宿 (Shinjuku),2011-03-01,10:00～10:59,0.0372,0.0318,0.0348,
新宿 (Shinjuku),2011-03-01,09:00～09:59,0.0388,0.0342,0.0369,
新宿 (Shinjuku),2011-03-01,08:00～08:59,0.0377,0.0321,0.0355,
新宿 (Shinjuku),2011-03-01,07:00～07:59,0.0370,0.0320,0.0341,
新宿 (Shinjuku),2011-03-01,06:00～06:59,0.0364,0.0313,0.0338,
新宿 (Shinjuku),2011-03-01,05:00～05:59,0.0360,0.0317,0.0339,
新宿 (Shinjuku),2011-03-01,04:00～04:59,0.0363,0.0321,0.0342,
新宿 (Shinjuku),2011-03-01,03:00～03:59,0.0371,0.0322,0.0343,
新宿 (Shinjuku),2011-03-01,02:00～02:59,0.0357,0.0325,0.0340,
新宿 (Shinjuku),2011-03-01,01:00～01:59,0.0368,0.0324,0.0342,
新宿 (Shinjuku),2011-03-01,00:00～00:59,0.0370,0.0316,0.0338,
